Weather History for Vernal, UT

Change the Weather History Date:

Monday, April 7, 2014

  Actual Average Record
Temperature  
Mean Temperature 48 °F 44 °F  
Max Temperature 61 °F 57 °F 79 °F (1989)
Min Temperature 34 °F 32 °F 9 °F (1928)
Degree Days  
Heating Degree Days 17 21  
Month to date heating degree days 167 151  
Since 1 July heating degree days 6725 6482  
Cooling Degree Days 0 0  
Month to date cooling degree days 0 0  
Year to date cooling degree days 0 0  
Moisture  
Dew Point 22 °F    
Average Humidity 45    
Maximum Humidity 70    
Minimum Humidity 20    
Precipitation  
Precipitation 0.00 in 0.02 in 0.74 in (1946)
Month to date precipitation 0.11 0.15  
Year to date precipitation 1.32 1.85  
Sea Level Pressure  
Sea Level Pressure 30.14 in    
Wind  
Wind Speed 6 mph (WSW)    
Max Wind Speed 14 mph    
Max Gust Speed 19 mph    
Visibility 10 miles    
Events      
T = Trace of Precipitation, MM = Missing Value Source: NWS Daily Summary

Daily Weather History Graph

Daily Weather History Graph

Search for Another Location

Airport:

Trip Planner

Search our weather history database for the weather conditions in past years. The results will help you decide how hot, cold, wet, or windy it might be!

Date:

Astronomy

Apr. 07, 2014 Rise Set
Actual Time 6:51 AM MDT 7:48 PM MDT
Civil Twilight 6:24 AM MDT 8:16 PM MDT
Nautical Twilight 5:51 AM MDT 8:49 PM MDT
Astronomical Twilight 5:16 AM MDT 9:24 PM MDT
Moon 12:50 PM MDT (4/7) 2:28 AM MDT (4/7)
Length of Visible Light 13h 52m
Length of Day
12h 56m
First Quarter, 54% of the Moon is Illuminated
Apr 7
First Quarter
Apr 15
Full
Apr 22
Last Quarter
Apr 29
New
May 6
First Quarter

Hourly Weather History & Observations

Time (MDT) Temp. Windchill Dew Point Humidity Pressure Visibility Wind Dir Wind Speed Gust Speed Precip Events Conditions
12:53 AM 39.0 °F 34.0 °F 27.0 °F 62% 30.08 in 10.0 mi South 6.9 mph - N/A   Mostly Cloudy
1:53 AM 37.9 °F 34.4 °F 27.0 °F 65% 30.10 in 10.0 mi East 4.6 mph - N/A   Mostly Cloudy
2:53 AM 36.0 °F - 26.1 °F 67% 30.09 in 10.0 mi Calm Calm - N/A   Clear
3:53 AM 41.0 °F - 25.0 °F 53% 30.08 in 10.0 mi Calm Calm - N/A   Partly Cloudy
4:53 AM 37.0 °F 34.5 °F 23.0 °F 57% 30.11 in 10.0 mi Variable 3.5 mph - N/A   Clear
5:53 AM 42.1 °F 39.2 °F 19.9 °F 41% 30.12 in 10.0 mi WSW 4.6 mph - N/A   Clear
6:53 AM 44.1 °F 39.5 °F 19.0 °F 37% 30.13 in 10.0 mi WNW 8.1 mph - N/A   Clear
7:53 AM 41.0 °F 37.1 °F 23.0 °F 49% 30.19 in 10.0 mi ENE 5.8 mph - N/A   Clear
10:53 AM 52.0 °F - 21.9 °F 31% 30.20 in 10.0 mi SSE 10.4 mph - N/A   Clear
11:53 AM 54.0 °F - 23.0 °F 30% 30.19 in 10.0 mi SSE 10.4 mph - N/A   Clear
12:53 PM 55.9 °F - 21.0 °F 26% 30.18 in 10.0 mi Variable 3.5 mph - N/A   Clear
2:53 PM 57.0 °F - 21.0 °F 25% 30.16 in 10.0 mi Variable 5.8 mph - N/A   Clear
3:53 PM 60.1 °F - 21.0 °F 22% 30.12 in 10.0 mi Calm Calm - N/A   Clear
4:53 PM 60.1 °F - 19.9 °F 21% 30.11 in 10.0 mi SW 4.6 mph - N/A   Clear
5:53 PM 61.0 °F - 21.0 °F 21% 30.10 in 10.0 mi West 8.1 mph - N/A   Clear
6:53 PM 60.1 °F - 19.9 °F 21% 30.11 in 10.0 mi Calm Calm - N/A   Clear
7:53 PM 55.0 °F - 21.9 °F 28% 30.15 in 10.0 mi North 3.5 mph - N/A   Clear
8:53 PM 53.1 °F - 21.9 °F 30% 30.15 in 10.0 mi North 9.2 mph - N/A   Clear
9:53 PM 51.1 °F - 21.9 °F 32% 30.19 in 10.0 mi WSW 4.6 mph - N/A   Clear
11:53 PM 48.0 °F - 23.0 °F 37% 30.20 in 10.0 mi NNE 6.9 mph - N/A   Clear